This is the latest recevied weather packets stored in our database for station/object K5RWS. If no packets are shown the sender has not sent any weather packets the latest 10 day(s).
| Time | Temp. | Humidity | Pressure | Rain* | Wind** | Luminosity | Snow |
|---|---|---|---|---|---|---|---|
| 1777476530 | 14.44° C | 15% | 1021.4 hPa | 0 mm | - | 388 W/m² | - |
| 1777476226 | 14.44° C | 15% | 1021.4 hPa | 0 mm | - | 388 W/m² | - |
| 1777475922 | 14.44° C | 15% | 1021.4 hPa | 0 mm | - | 388 W/m² | - |
| 1777475618 | 14.44° C | 15% | 1021.5 hPa | 0 mm | - | 400 W/m² | - |
| 1777475315 | 14.44° C | 17% | 1021.5 hPa | 0 mm | - | 410 W/m² | - |
| 1777475009 | 14.44° C | 15% | 1021.7 hPa | 0 mm | - | 387 W/m² | - |
| 1777474707 | 14.44° C | 15% | 1021.6 hPa | 0 mm | - | 415 W/m² | - |
| 1777474403 | 13.89° C | 15% | 1021.6 hPa | 0 mm | - | 329 W/m² | - |
| 1777474099 | 13.89° C | 16% | 1021.4 hPa | 0 mm | - | 281 W/m² | - |
| 1777473797 | 13.33° C | 16% | 1021.3 hPa | 0 mm | - | 295 W/m² | - |
| 1777473494 | 12.78° C | 15% | 1021.6 hPa | 0 mm | - | 246 W/m² | - |
| 1777473189 | 12.78° C | 16% | 1021.4 hPa | 0 mm | - | 203 W/m² | - |
| 1777472887 | 12.22° C | 16% | 1021.4 hPa | 0 mm | - | 200 W/m² | - |
| 1777472583 | 12.22° C | 16% | 1021.5 hPa | 0 mm | - | 212 W/m² | - |
| 1777472280 | 11.67° C | 17% | 1021.1 hPa | 0 mm | - | 197 W/m² | - |
| 1777471976 | 12.22° C | 17% | 1021.1 hPa | 0 mm | - | 171 W/m² | - |
| 1777471673 | 11.67° C | 17% | 1021.3 hPa | 0 mm | - | 150 W/m² | - |
| 1777471369 | 11.11° C | 17% | 1021.1 hPa | 0 mm | - | 160 W/m² | - |
| 1777471066 | 11.67° C | 17% | 1021.4 hPa | 0 mm | - | 122 W/m² | - |
| 1777470762 | 11.67° C | 17% | 1021.1 hPa | 0 mm | - | 121 W/m² | - |
| 1777470459 | 11.67° C | 17% | 1020.9 hPa | 0 mm | - | 114 W/m² | - |
| 1777470155 | 12.22° C | 16% | 1020.9 hPa | 0 mm | - | 115 W/m² | - |
| 1777469852 | 12.78° C | 15% | 1020.9 hPa | 0 mm | - | 150 W/m² | - |
| 1777469547 | 11.11° C | 16% | 1020.8 hPa | 0 mm | - | 141 W/m² | - |
| 1777469241 | 10.56° C | 17% | 1020.8 hPa | 0 mm | - | 142 W/m² | - |
* Rain latest hour (hover to see other rain measurements)
** Current wind speed in m/s (hover to see current wind gust speed)